Weather History for Fredericksburg, TX

Change the Weather History Date:

Friday, September 27, 2013

  Actual Average (KSAT) Record (KSAT)
Temperature  
Mean Temperature 80 °F 76 °F  
Max Temperature 89 °F 87 °F 102 °F (2005)
Min Temperature 72 °F 66 °F 41 °F (1942)
Degree Days  
Heating Degree Days 0 0  
Month to date heating degree days 0  
Since 1 July heating degree days 0  
Cooling Degree Days 16 12  
Month to date cooling degree days 410  
Year to date cooling degree days 2801  
Growing Degree Days 30 (Base 50)    
Moisture  
Dew Point 69 °F    
Average Humidity 74    
Maximum Humidity 88    
Minimum Humidity 49    
Precipitation  
Precipitation 0.00 in 0.09 in 3.54 in (1896)
Month to date precipitation 2.73  
Year to date precipitation 23.67  
Snow  
Snow 0.00 in - - ()
Month to date snowfall  
Since 1 July snowfall  
Since 1 September snowfall  
Snow Depth -    
Sea Level Pressure  
Sea Level Pressure 29.91 in    
Wind  
Wind Speed 9 mph (SSE)    
Max Wind Speed 15 mph    
Max Gust Speed 22 mph    
Visibility 10 miles    
Events Thunderstorm    
T = Trace of Precipitation, MM = Missing Value Source: NWS Daily Summary

Daily Weather History Graph

Daily Weather History Graph

Search for Another Location

Airport:

Trip Planner

Search our weather history database for the weather conditions in past years. The results will help you decide how hot, cold, wet, or windy it might be!

Date:

Astronomy

Sep. 27, 2013 Rise Set
Actual Time 7:26 AM CDT 7:25 PM CDT
Civil Twilight 7:03 AM CDT 7:49 PM CDT
Nautical Twilight 6:35 AM CDT 8:17 PM CDT
Astronomical Twilight 6:07 AM CDT 8:45 PM CDT
Moon 12:46 AM CDT (9/27) 2:43 PM CDT (9/27)
Length of Visible Light 12h 46m
Length of Day
11h 58m
Last Quarter, 45% of the Moon is Illuminated
Sep 27
Last Quarter
Oct 4
New
Oct 11
First Quarter
Oct 18
Full
Oct 26
Last Quarter

Hourly Weather History & Observations

Time (CDT) Temp. Heat Index Dew Point Humidity Pressure Visibility Wind Dir Wind Speed Gust Speed Precip Events Conditions
12:15 AM 76.5 °F - 70.3 °F 81% 29.91 in 10.0 mi SSE 8.1 mph - N/A   Mostly Cloudy
12:35 AM 76.3 °F - 70.2 °F 81% 29.91 in 10.0 mi SSE 11.5 mph 17.3 mph N/A   Mostly Cloudy
12:55 AM 75.7 °F - 70.0 °F 82% 29.91 in 10.0 mi SSE 9.2 mph - N/A   Mostly Cloudy
1:15 AM 75.7 °F - 69.8 °F 82% 29.92 in 10.0 mi South 9.2 mph 16.1 mph N/A   Mostly Cloudy
1:35 AM 74.5 °F - 66.6 °F 76% 29.92 in 10.0 mi South 11.5 mph 20.7 mph N/A   Mostly Cloudy
1:55 AM 73.8 °F - 67.1 °F 80% 29.92 in 10.0 mi SSE 6.9 mph 16.1 mph N/A   Scattered Clouds
2:15 AM 73.4 °F - 67.5 °F 82% 29.92 in 10.0 mi SSE 9.2 mph - N/A   Mostly Cloudy
2:35 AM 73.4 °F - 67.6 °F 82% 29.92 in 10.0 mi South 9.2 mph - N/A   Overcast
2:55 AM 73.6 °F - 67.6 °F 82% 29.92 in 10.0 mi South 6.9 mph - N/A   Overcast
3:15 AM 73.4 °F - 67.6 °F 82% 29.91 in 10.0 mi South 8.1 mph - N/A   Overcast
3:35 AM 72.9 °F - 68.0 °F 85% 29.91 in 10.0 mi SSE 5.8 mph - N/A   Mostly Cloudy
3:55 AM 72.5 °F - 68.0 °F 86% 29.90 in 10.0 mi SSE 4.6 mph - N/A   Mostly Cloudy
4:15 AM 72.3 °F - 68.0 °F 86% 29.90 in 10.0 mi SSE 3.5 mph - N/A   Mostly Cloudy
4:35 AM 72.0 °F - 68.2 °F 88% 29.90 in 10.0 mi South 4.6 mph - N/A   Mostly Cloudy
4:55 AM 72.5 °F - 68.9 °F 88% 29.90 in 10.0 mi SSE 4.6 mph - N/A   Overcast
5:15 AM 72.9 °F - 68.9 °F 87% 29.90 in 10.0 mi SSE 5.8 mph - N/A   Overcast
5:35 AM 73.4 °F - 69.1 °F 86% 29.90 in 10.0 mi South 8.1 mph - N/A   Overcast
5:55 AM 73.6 °F - 68.9 °F 85% 29.90 in 10.0 mi South 8.1 mph - N/A   Overcast
6:15 AM 73.8 °F - 68.9 °F 85% 29.91 in 10.0 mi South 6.9 mph - N/A   Overcast
6:35 AM 73.8 °F - 68.5 °F 84% 29.92 in 10.0 mi South 6.9 mph - N/A   Overcast
6:55 AM 73.8 °F - 68.2 °F 83% 29.92 in 10.0 mi SSE 3.5 mph - N/A   Overcast
7:15 AM 73.8 °F - 68.4 °F 83% 29.92 in 10.0 mi SSE 3.5 mph - N/A   Overcast
7:35 AM 73.6 °F - 68.7 °F 85% 29.92 in 10.0 mi SE 4.6 mph - N/A   Overcast
7:55 AM 73.8 °F - 68.4 °F 83% 29.93 in 10.0 mi South 9.2 mph - N/A   Overcast
8:15 AM 73.9 °F - 68.4 °F 83% 29.93 in 10.0 mi SSE 4.6 mph - N/A   Overcast
8:35 AM 74.3 °F - 68.7 °F 83% 29.94 in 10.0 mi SSE 8.1 mph - N/A   Overcast
8:55 AM 74.3 °F - 68.9 °F 83% 29.94 in 10.0 mi SSE 6.9 mph - N/A   Overcast
9:15 AM 74.3 °F - 68.9 °F 83% 29.95 in 10.0 mi SSE 8.1 mph - N/A   Overcast
9:35 AM 74.8 °F - 69.6 °F 84% 29.95 in 10.0 mi SSE 9.2 mph - N/A   Overcast
9:55 AM 75.4 °F - 69.8 °F 83% 29.95 in 10.0 mi SSE 8.1 mph - N/A   Overcast
10:15 AM 75.9 °F - 70.0 °F 82% 29.95 in 10.0 mi South 10.4 mph 17.3 mph N/A   Overcast
10:35 AM 76.5 °F - 70.2 °F 81% 29.95 in 10.0 mi SSE 9.2 mph - N/A   Overcast
10:55 AM 76.6 °F - 70.2 °F 80% 29.95 in 10.0 mi SSE 10.4 mph - N/A   Overcast
11:15 AM 77.2 °F - 70.3 °F 79% 29.95 in 10.0 mi South 9.2 mph 16.1 mph N/A   Overcast
11:35 AM 78.4 °F - 70.3 °F 76% 29.95 in 10.0 mi South 8.1 mph - N/A   Overcast
11:55 AM 79.3 °F - 70.2 °F 73% 29.94 in 10.0 mi South 10.4 mph - N/A   Overcast
12:15 PM 79.5 °F - 69.6 °F 72% 29.94 in 10.0 mi South 12.7 mph 17.3 mph N/A   Overcast
12:35 PM 80.6 °F 83.8 °F 69.4 °F 69% 29.94 in 10.0 mi South 10.4 mph - N/A   Overcast
12:55 PM 81.7 °F 85.2 °F 69.6 °F 67% 29.93 in 10.0 mi South 13.8 mph 19.6 mph N/A   Overcast
1:15 PM 81.7 °F 85.2 °F 69.8 °F 67% 29.93 in 10.0 mi South 13.8 mph - N/A   Overcast
1:35 PM 82.2 °F 86.0 °F 70.0 °F 66% 29.92 in 10.0 mi SSE 8.1 mph - N/A   Overcast
1:55 PM 82.8 °F 86.9 °F 70.2 °F 66% 29.91 in 10.0 mi South 9.2 mph - N/A   Overcast
2:15 PM 83.8 °F 87.8 °F 69.6 °F 62% 29.90 in 10.0 mi South 13.8 mph - N/A   Overcast
2:35 PM 85.5 °F 89.4 °F 69.3 °F 58% 29.89 in 10.0 mi SSW 12.7 mph 17.3 mph N/A   Mostly Cloudy
2:55 PM 84.9 °F 88.8 °F 68.9 °F 59% 29.88 in 10.0 mi South 11.5 mph - N/A   Overcast
3:15 PM 85.6 °F 89.1 °F 68.5 °F 56% 29.87 in 10.0 mi South 12.7 mph 16.1 mph N/A   Mostly Cloudy
3:35 PM 86.7 °F 89.6 °F 67.3 °F 52% 29.87 in 10.0 mi South 15.0 mph 21.9 mph N/A   Mostly Cloudy
3:55 PM 87.6 °F 90.8 °F 67.5 °F 51% 29.87 in 10.0 mi SSW 11.5 mph - N/A   Mostly Cloudy
4:15 PM 88.5 °F 91.6 °F 67.3 °F 49% 29.86 in 10.0 mi South 13.8 mph 20.7 mph N/A   Overcast
4:35 PM 89.4 °F 93.5 °F 68.4 °F 50% 29.86 in 10.0 mi SSW 11.5 mph 21.9 mph N/A   Mostly Cloudy
4:55 PM 86.9 °F 90.3 °F 67.8 °F 53% 29.86 in 10.0 mi SSE 10.4 mph - N/A   Mostly Cloudy
5:15 PM 87.1 °F 90.2 °F 67.3 °F 52% 29.85 in 10.0 mi South 10.4 mph 19.6 mph N/A Thunderstorm Scattered Clouds
5:35 PM 86.5 °F 89.3 °F 67.3 °F 52% 29.85 in 10.0 mi South 11.5 mph 17.3 mph N/A   Clear
5:55 PM 86.9 °F 89.9 °F 67.5 °F 52% 29.86 in 10.0 mi SSE 12.7 mph 19.6 mph N/A   Scattered Clouds
6:15 PM 85.3 °F 88.8 °F 68.4 °F 57% 29.85 in 10.0 mi SSE 8.1 mph - N/A   Clear
6:35 PM 83.5 °F 88.8 °F 71.8 °F 68% 29.86 in 10.0 mi SE 10.4 mph 17.3 mph N/A   Scattered Clouds
6:55 PM 82.8 °F 87.7 °F 71.6 °F 69% 29.85 in 10.0 mi SE 10.4 mph 16.1 mph N/A   Scattered Clouds
7:15 PM 81.9 °F 86.2 °F 71.2 °F 70% 29.85 in 10.0 mi SE 12.7 mph 16.1 mph N/A   Clear
7:35 PM 81.3 °F 85.2 °F 70.7 °F 70% 29.86 in 10.0 mi SSE 10.4 mph 18.4 mph N/A   Clear
7:55 PM 80.8 °F 84.2 °F 70.2 °F 70% 29.86 in 10.0 mi SE 5.8 mph - N/A   Clear
8:15 PM 80.1 °F 83.3 °F 70.3 °F 72% 29.87 in 10.0 mi SE 6.9 mph - N/A   Clear
8:35 PM 79.7 °F - 70.3 °F 73% 29.88 in 10.0 mi SSE 8.1 mph - N/A   Clear
8:55 PM 79.3 °F - 70.7 °F 75% 29.89 in 10.0 mi SSE 11.5 mph 17.3 mph N/A   Scattered Clouds
9:15 PM 79.0 °F - 70.7 °F 76% 29.90 in 10.0 mi SE 6.9 mph - N/A   Clear
9:35 PM 78.8 °F - 70.7 °F 76% 29.89 in 10.0 mi SE 10.4 mph - N/A   Clear
9:55 PM 78.3 °F - 70.9 °F 78% 29.90 in 10.0 mi SSE 8.1 mph - N/A   Scattered Clouds
10:15 PM 77.9 °F - 70.7 °F 78% 29.91 in 10.0 mi SSE 6.9 mph 16.1 mph N/A   Clear
10:35 PM 77.9 °F - 70.9 °F 79% 29.91 in 10.0 mi SSE 13.8 mph 19.6 mph N/A   Mostly Cloudy
10:55 PM 78.1 °F - 70.7 °F 78% 29.92 in 10.0 mi SSE 9.2 mph - N/A   Mostly Cloudy
11:15 PM 77.5 °F - 70.7 °F 79% 29.92 in 10.0 mi SSE 12.7 mph 20.7 mph N/A   Mostly Cloudy
11:35 PM 77.2 °F - 70.3 °F 79% 29.91 in 10.0 mi SSE 10.4 mph 17.3 mph N/A   Mostly Cloudy
11:55 PM 77.0 °F - 70.3 °F 80% 29.92 in 10.0 mi SSE 10.4 mph - N/A   Scattered Clouds